[[{"header":{"parameterUnit":"m.s-1","parameterCategory":1,"la1":30.2991,"la2":30.254,"lo1":-89.0895,"lo2":-89.0444,"dy":0.0017,"dx":0.0017,"nx":28,"ny":28,"refTime":"2025-08-08T09:00:00:Z","depth":0,"parameterNumber":2,"parameterNumberName":"U-component_of_WINDS"},"data":[0,0,0,0,0,0,0,0,0,0,0,0,0,0,0,0,0,0,0,0,0,0,0,0,0,0,0,0,0,0,0,0,0,0,0,0,0,0,0,0,0,0,0,0,0,0,0,0,0,0,0,0,0,0,0,0,0,0,-5.1057,-5.1056,0,-5.1024,-5.1024,-5.1023,-5.0879,-5.0875,-5.0872,-5.0869,-5.0838,-5.084,-5.0843,0,0,0,0,0,0,0,0,0,0,0,0,0,-5.0996,-5.0998,-5.1057,-5.1056,-5.1056,-5.1024,-5.1024,-5.1023,-5.0879,-5.0875,-5.0871,-5.0867,-5.0837,-5.084,-5.0843,0,0,0,0,0,0,0,0,0,0,0,0,0,-5.0999,-5.0998,-5.1057,-5.098,-5.0973,-5.1024,-5.1024,-5.1023,-5.088,-5.0875,-5.087,-5.0865,-5.0836,-5.084,-5.0843,-5.0966,0,0,-5.0854,-5.0855,0,0,0,0,0,0,0,0,-5.0999,-5.1001,-5.0992,-5.0986,-5.0978,-5.095,-5.0991,-5.1004,-5.0882,-5.0916,-5.0869,-5.0863,-5.088,-5.0879,-5.0884,-5.0965,-5.0963,-5.0854,-5.0856,-5.0858,-5.0859,0,0,0,0,0,0,0,-5.0999,-5.1002,-5.1044,-5.0992,-5.0983,-5.0948,-5.0943,-5.0993,-5.0927,-5.0912,-5.0902,-5.09,-5.0875,-5.0881,-5.0883,-5.0963,-5.0854,-5.0857,-5.0859,-5.0861,-5.1139,-5.1144,0,0,0,0,0,0,-5.1009,-5.1003,-5.1045,-5.1043,-5.0976,-5.0953,-5.0947,-5.0964,-5.0926,-5.0915,-5.0904,-5.0893,-5.0878,-5.0879,-5.0881,-5.1019,-5.0858,-5.0861,-5.0863,-5.1134,-5.1141,-5.1146,0,0,0,0,0,0,-5.1009,-5.1014,-5.1046,-5.102,-5.1021,-5.096,-5.098,-5.0966,-5.0972,-5.0919,-5.0907,-5.0923,-5.0874,-5.0876,-5.0945,-5.1016,-5.0863,-5.0866,-5.1128,-5.1136,-5.1143,-5.1298,0,0,0,0,0,0,-5.1007,-5.1015,-5.1061,-5.1022,-5.1023,-5.1111,-5.0984,-5.0969,-5.0979,-5.0964,-5.0934,-5.0924,-5.087,-5.0941,-5.0949,-5.1018,-5.0868,-5.1121,-5.1131,-5.1141,-5.1286,-5.131,-5.1331,0,0,0,0,0,-5.1006,-5.1107,-5.1064,-5.107,-5.1079,-5.1115,-5.1116,-5.1051,-5.0985,-5.103,-5.0996,-5.0925,-5.1008,-5.0949,-5.0957,-5.1028,-5.1116,-5.1129,-5.114,-5.1276,-5.1306,-5.133,0,0,0,0,0,0,-5.1157,-5.1101,-5.1052,-5.1144,-5.1135,-5.1091,-5.1146,-5.1085,-5.1096,-5.1082,-5.1002,-5.0997,-5.1077,-5.106,-5.0995,-5.1144,-5.105,-5.1064,-5.1151,-5.1178,-5.12,-5.1201,-5.0871,0,0,0,0,0,-5.1201,-5.1235,-5.1184,-5.127,-5.1268,-5.1208,-5.1222,-5.1173,-5.1161,-5.1157,-5.1127,-5.112,-5.1143,-5.1161,-5.118,-5.1285,-5.1274,-5.1338,-5.136,-5.1379,-5.139,-5.1441,-5.1468,-5.1185,-5.1185,-5.1185,0,0,-5.1292,-5.1266,-5.1292,-5.1299,-5.1287,-5.1323,-5.1206,-5.125,-5.1275,-5.1164,-5.1225,-5.1204,-5.119,-5.1277,-5.1313,-5.1265,-5.1467,-5.1394,-5.1409,-5.141,-5.1456,-5.1483,-5.1507,-5.1194,-5.1192,-5.1191,0,0,-5.1475,-5.1461,-5.1528,-5.1518,-5.15,-5.1459,-5.1476,-5.1441,-5.1421,-5.1482,-5.1398,-5.1429,-5.1473,-5.1464,-5.1466,-5.1647,-5.158,-5.1656,-5.1771,-5.1821,-5.1843,-5.1862,-5.1923,-5.1946,-5.1669,-5.1669,-5.1669,0,-5.1591,-5.1641,-5.1571,-5.1619,-5.1623,-5.1524,-5.1591,-5.1585,-5.1575,-5.1581,-5.1527,-5.1578,-5.1562,-5.1643,-5.1687,-5.1694,-5.1708,-5.1657,-5.1846,-5.1864,-5.1881,-5.1938,-5.1961,-5.1678,-5.1677,-5.1676,-5.1675,0,-5.1781,-5.1818,-5.1875,-5.1865,-5.1877,-5.1935,-5.1874,-5.1895,-5.1845,-5.1811,-5.1873,-5.1851,-5.1862,-5.1879,-5.1832,-5.1954,-5.1923,-5.186,-5.1763,-5.1918,-5.197,-5.1991,-5.1691,-5.1688,-5.1685,-5.1683,0,0,-5.2057,-5.2007,-5.2029,-5.2022,-5.1995,-5.2021,-5.2075,-5.2085,-5.2102,-5.2101,-5.2141,-5.2181,-5.212,-5.2123,-5.2075,-5.212,-5.2259,-5.2049,-5.2048,-5.2085,-5.2388,-5.2432,-5.2459,-5.2217,-5.2221,-5.2224,-5.2387,0,-5.2227,-5.2313,-5.2252,-5.2348,-5.2379,-5.2285,-5.2331,-5.232,-5.229,-5.2312,-5.2279,-5.2306,-5.2227,-5.2227,-5.2268,-5.2234,-5.2318,-5.2222,-5.2252,-5.2254,-5.2254,-5.2486,-5.2534,-5.2689,-5.2408,-5.2411,-5.2413,0,-5.2438,-5.2441,-5.2541,-5.2504,-5.2515,-5.2558,-5.256,-5.2584,-5.2569,-5.2543,-5.2546,-5.2486,-5.2535,-5.2444,-5.251,-5.2446,-5.2456,-5.2441,-5.2446,-5.2442,-5.234,-5.2485,-5.2737,-5.2759,-5.2445,-5.2443,-5.2441,0,-5.2622,-5.2654,-5.2715,-5.2713,-5.2674,-5.2705,-5.2691,-5.2671,-5.268,-5.2684,-5.2688,-5.27,-5.2704,-5.2714,-5.2658,-5.2597,-5.273,-5.2635,-5.2709,-5.271,-5.2737,-5.2735,-5.299,-5.2752,-5.2752,-5.2751,-5.2751,0,-5.2817,-5.288,-5.2797,-5.2835,-5.2902,-5.2832,-5.2901,-5.2877,-5.286,-5.2892,-5.2814,-5.2845,-5.2771,-5.2795,-5.2753,-5.2812,-5.2816,-5.2796,-5.2783,-5.28,-5.2802,-5.2802,-5.2788,-5.2757,-5.2756,-5.2755,-5.2754,0,-5.3033,-5.298,-5.3041,-5.2999,-5.2989,-5.3041,-5.3004,-5.3038,-5.3003,-5.3043,-5.3049,-5.2994,-5.3018,-5.2964,-5.2982,-5.2952,-5.3035,-5.3008,-5.3039,-5.3029,-5.3104,-5.3096,-5.3364,-5.3394,-5.3142,-5.3144,-5.3146,0,-5.3158,-5.3204,-5.3166,-5.318,-5.3169,-5.3195,-5.3202,-5.3136,-5.3148,-5.3134,-5.3169,-5.3186,-5.3195,-5.3238,-5.32,-5.3212,-5.3181,-5.3275,-5.3183,-5.3198,-5.3177,-5.3173,-5.3176,-5.3292,-5.3295,-5.3298,-5.33,0,-5.3384,-5.3355,-5.3369,-5.3374,-5.3386,-5.3387,-5.3383,-5.34,-5.3329,-5.3347,-5.3369,-5.3376,-5.3393,-5.341,-5.3413,-5.3399,-5.3337,-5.333,-5.3346,-5.3362,-5.3376,-5.3365,-5.3086,-5.3323,-5.332,-5.3319,-5.3317,-5.3316,-5.3555,-5.359,-5.3567,-5.3585,-5.3575,-5.3573,-5.36,-5.3568,-5.3585,-5.3591,-5.3552,-5.3583,-5.3566,-5.3564,-5.3556,-5.3579,-5.3537,-5.3563,-5.3568,-5.3574,-5.3584,-5.3377,-5.358,-5.358,-5.3579,-5.3578,-5.3578,0,-5.3773,-5.3754,-5.3771,-5.3766,-5.378,-5.3721,-5.3713,-5.3729,-5.3756,-5.3745,-5.3756,-5.3781,-5.3797,-5.3761,-5.3771,-5.3796,-5.3768,-5.3801,-5.3796,-5.3793,-5.3624,-5.3606,-5.3823,-5.3823,-5.3823,-5.3823,-5.3823,-5.3823,-5.3887,-5.3942,-5.3911,-5.3959,-5.394,-5.3967,-5.3967,-5.3965,-5.3955,-5.3986,-5.3998,-5.3974,-5.3952,-5.3961,-5.3973,-5.3962,-5.3968,-5.4009,-5.3988,-5.383,-5.3806,-5.3782,-5.3765,-5.4012,-5.4013,-5.4155,-5.4156,-5.4157]},{"header":{"parameterUnit":"m.s-1","parameterCategory":1,"la1":30.2991,"la2":30.254,"lo1":-89.0895,"lo2":-89.0444,"dy":0.0017,"dx":0.0017,"nx":28,"ny":28,"refTime":"2025-08-08T09:00:00:Z","depth":0,"parameterNumber":3,"parameterNumberName":"V-component_of_WINDS"},"data":[0,0,0,0,0,0,0,0,0,0,0,0,0,0,0,0,0,0,0,0,0,0,0,0,0,0,0,0,0,0,0,0,0,0,0,0,0,0,0,0,0,0,0,0,0,0,0,0,0,0,0,0,0,0,0,0,0,0,0.8544,0.8545,0,0.8555,0.8555,0.8555,0.8536,0.8535,0.8535,0.8534,0.8543,0.8544,0.8545,0,0,0,0,0,0,0,0,0,0,0,0,0,0.8508,0.8509,0.8544,0.8545,0.8545,0.8555,0.8555,0.8555,0.8536,0.8535,0.8535,0.8534,0.8543,0.8544,0.8545,0,0,0,0,0,0,0,0,0,0,0,0,0,0.8522,0.8509,0.8544,0.8537,0.8536,0.8555,0.8555,0.8555,0.8536,0.8535,0.8534,0.8534,0.8542,0.8544,0.8545,0.8571,0,0,0.8549,0.8549,0,0,0,0,0,0,0,0,0.8521,0.8523,0.8538,0.8537,0.8536,0.8543,0.8545,0.8561,0.8537,0.8536,0.8534,0.8533,0.8544,0.8545,0.8549,0.8572,0.8572,0.8549,0.8549,0.855,0.855,0,0,0,0,0,0,0,0.852,0.8523,0.8548,0.8538,0.8537,0.8533,0.8533,0.8548,0.8545,0.8536,0.8535,0.8536,0.8543,0.8548,0.8549,0.8572,0.8549,0.855,0.8551,0.8551,0.8619,0.862,0,0,0,0,0,0,0.852,0.8522,0.8548,0.8549,0.8526,0.8534,0.8535,0.8542,0.8545,0.8544,0.8537,0.8535,0.8546,0.8547,0.8549,0.8581,0.855,0.8551,0.8552,0.8618,0.8619,0.862,0,0,0,0,0,0,0.852,0.8523,0.8548,0.8535,0.8538,0.8536,0.8544,0.8543,0.8547,0.8546,0.8545,0.8542,0.8545,0.8547,0.8566,0.8581,0.8552,0.8553,0.8617,0.8618,0.862,0.8644,0,0,0,0,0,0,0.8519,0.8523,0.8532,0.8535,0.8539,0.8565,0.8545,0.8544,0.8549,0.8547,0.855,0.855,0.8545,0.8565,0.8568,0.8582,0.8554,0.8615,0.8617,0.8619,0.8642,0.8646,0.865,0,0,0,0,0,0.8517,0.8538,0.8533,0.8536,0.8551,0.8566,0.8568,0.8562,0.8551,0.8561,0.856,0.855,0.8579,0.8567,0.857,0.8585,0.8614,0.8617,0.8619,0.864,0.8645,0.865,0,0,0,0,0,0,0.8535,0.8538,0.8533,0.8555,0.8561,0.8563,0.8575,0.8567,0.8576,0.8573,0.8565,0.8566,0.8587,0.8588,0.8574,0.8611,0.8595,0.8598,0.861,0.8615,0.8619,0.8617,0.8555,0,0,0,0,0,0.8542,0.8554,0.8556,0.8576,0.8579,0.8577,0.8583,0.8578,0.8583,0.8585,0.8586,0.8591,0.8602,0.8608,0.8618,0.8643,0.8643,0.8655,0.8659,0.8662,0.8664,0.8678,0.8684,0.8628,0.8628,0.8628,0,0,0.8556,0.8559,0.8567,0.8579,0.8583,0.8596,0.8578,0.8592,0.8602,0.8587,0.8605,0.8607,0.8612,0.8634,0.8644,0.8635,0.868,0.8665,0.8668,0.8668,0.8681,0.8687,0.8691,0.863,0.863,0.8629,0,0,0.8587,0.8591,0.8608,0.8613,0.8619,0.8618,0.8622,0.8626,0.8627,0.8645,0.8635,0.8646,0.8664,0.8669,0.8673,0.871,0.87,0.8713,0.8734,0.8747,0.8752,0.8756,0.8768,0.8773,0.8716,0.8716,0.8716,0,0.8603,0.8622,0.8617,0.8633,0.8639,0.8628,0.8646,0.865,0.8659,0.8664,0.8655,0.8679,0.8681,0.8705,0.8714,0.8718,0.8723,0.8712,0.8752,0.8755,0.8759,0.8771,0.8776,0.8717,0.8717,0.8717,0.8717,0,0.8641,0.8655,0.8668,0.8678,0.8686,0.8702,0.8701,0.8709,0.8705,0.8705,0.8725,0.8728,0.8739,0.8745,0.874,0.8768,0.8763,0.8753,0.8736,0.8766,0.8777,0.8782,0.872,0.8719,0.8719,0.8718,0,0,0.8681,0.8691,0.8696,0.8701,0.8709,0.8719,0.8736,0.8747,0.8755,0.8762,0.8776,0.8793,0.8785,0.879,0.8786,0.8799,0.8828,0.8787,0.8787,0.8794,0.8859,0.8866,0.8871,0.8822,0.8823,0.8824,0.8859,0,0.8712,0.8741,0.8739,0.8766,0.8779,0.877,0.8785,0.8791,0.8793,0.8804,0.8805,0.8817,0.8805,0.8808,0.8821,0.8821,0.884,0.8819,0.8834,0.8835,0.8832,0.8877,0.8883,0.8916,0.8863,0.8864,0.8864,0,0.8751,0.8761,0.879,0.8798,0.8803,0.8816,0.8828,0.8839,0.8846,0.8846,0.8854,0.8849,0.8866,0.885,0.8873,0.8859,0.8866,0.8867,0.8869,0.8868,0.885,0.8877,0.8926,0.893,0.8871,0.8871,0.887,0,0.8777,0.8798,0.8819,0.8824,0.8833,0.8842,0.8847,0.8854,0.8861,0.8872,0.8876,0.8888,0.8894,0.8904,0.8902,0.889,0.8926,0.891,0.8926,0.8926,0.8932,0.8931,0.8981,0.8938,0.8938,0.8938,0.8938,0,0.8811,0.8829,0.8831,0.8843,0.8863,0.8861,0.8881,0.8885,0.8891,0.8904,0.8898,0.891,0.8908,0.892,0.8919,0.8939,0.8942,0.8942,0.8941,0.8942,0.8942,0.8945,0.8942,0.894,0.8939,0.8939,0.8939,0,0.8843,0.8845,0.8866,0.8874,0.8877,0.8892,0.8898,0.891,0.8912,0.8929,0.8932,0.8935,0.8949,0.8949,0.8965,0.8964,0.8989,0.8986,0.8986,0.8985,0.9001,0.8999,0.9054,0.9061,0.9014,0.9015,0.9015,0,0.8863,0.8877,0.8888,0.8897,0.8902,0.8916,0.8924,0.8924,0.8933,0.8944,0.8955,0.8969,0.898,0.9003,0.9006,0.9019,0.9016,0.9034,0.9017,0.9018,0.9015,0.9014,0.9016,0.9037,0.9037,0.9038,0.9038,0,0.89,0.8901,0.8914,0.8928,0.8939,0.8949,0.8959,0.8966,0.8967,0.8977,0.8993,0.9002,0.9019,0.9033,0.9046,0.905,0.9044,0.9044,0.9048,0.9048,0.9048,0.9048,0.8994,0.9042,0.9042,0.9041,0.9041,0.9041,0.8927,0.8939,0.8949,0.8964,0.8972,0.8982,0.8994,0.8998,0.9011,0.9026,0.9025,0.9042,0.9051,0.9068,0.9073,0.9087,0.908,0.9086,0.9088,0.9089,0.909,0.9047,0.9089,0.9089,0.9089,0.9089,0.9088,0,0.8963,0.897,0.8984,0.8998,0.901,0.9006,0.9017,0.9027,0.9042,0.9052,0.9064,0.9082,0.9096,0.9102,0.9115,0.9125,0.9123,0.9129,0.9127,0.9128,0.9096,0.909,0.913,0.913,0.913,0.913,0.913,0.913,0.8983,0.9004,0.9007,0.9032,0.9038,0.9056,0.9063,0.9072,0.908,0.9101,0.9113,0.9117,0.9125,0.914,0.9153,0.9154,0.9159,0.9166,0.9166,0.9135,0.9131,0.9126,0.9121,0.9167,0.9167,0.9197,0.9198,0.9198]}]]